EHI
7 8 10 13 16 18 20 20 20 22 25 25 23 21 19 17 18 19 20 20 19 19 20 17 16 14 11 10 9 9 8 7 7 7 5 4 6 6 5 5 4 2 1
8 9 11 13 15 17 18 18 19 21 23 23 23 22 20 18 17 18 19 19 17 18 18 18 17 14 11 9 9 7 6 5 5 6 4 3 4 5 4 3 3 2 1
9 10 13 14 15 16 16 17 20 22 21 21 21 21 20 18 16 18 19 19 17 15 15 15 14 11 9 8 7 6 4 4 4 4 3 2 3 4 3 2 3 2 2
10 11 13 15 15 15 16 19 23 24 22 20 18 17 17 16 15 17 18 19 17 14 13 12 10 9 8 7 7 6 5 5 4 3 2 2 2 3 3 3 2 2 2
10 10 11 12 13 14 17 20 23 24 22 19 17 15 14 15 14 14 15 17 16 13 11 9 9 9 7 6 7 7 7 6 3 2 2 2 2 3 3 3 1 1 1
12 11 10 10 12 15 18 18 19 21 20 18 17 15 14 15 15 14 13 13 14 12 8 7 8 9 7 7 7 7 6 5 3 1 1 2 3 3 3 2 1 0 0
13 12 11 12 14 17 18 18 18 19 18 17 16 16 14 13 13 12 11 11 12 10 8 7 9 9 7 7 7 7 6 4 3 2 2 3 3 3 3 3 1 0 0
14 14 14 14 16 17 17 16 16 17 17 15 15 15 13 10 10 10 10 10 11 10 9 9 9 9 7 6 6 5 5 4 3 3 3 3 3 3 3 3 2 1 0
14 14 14 14 15 15 15 14 14 15 14 13 13 12 9 7 7 9 10 9 9 8 7 8 8 7 6 5 4 4 4 4 4 3 3 3 3 3 3 3 2 1 0
13 13 13 12 12 13 13 13 12 12 11 10 10 8 6 6 7 8 9 8 7 7 6 6 6 6 6 6 4 4 5 5 5 4 3 3 3 2 3 3 2 1 0
11 10 9 10 11 10 10 11 10 9 9 8 8 7 6 6 7 8 8 8 8 8 7 6 5 6 6 5 5 5 5 6 6 5 4 4 3 3 3 3 2 1 0
8 7 7 9 9 7 6 7 8 8 8 8 7 7 6 6 7 8 8 8 9 9 8 7 6 6 5 4 4 4 5 5 6 6 5 5 5 5 4 4 3 1 0
6 6 6 7 6 5 5 4 5 7 7 6 5 6 6 6 7 7 8 9 9 9 8 7 6 5 4 3 4 4 4 4 5 5 5 6 6 6 6 5 4 1 0
5 4 4 5 5 5 5 3 3 4 4 3 3 5 6 6 7 7 7 8 8 7 6 6 5 4 3 3 3 4 3 4 5 6 6 6 6 6 6 5 4 3 2
6 4 4 5 6 6 5 4 3 3 3 2 2 3 5 5 6 6 6 6 6 6 6 6 4 3 3 2 2 3 4 5 6 6 6 6 5 4 3 3 3 3 4
7 6 6 7 8 7 5 4 3 3 3 2 2 2 3 4 5 5 5 6 6 6 7 6 5 3 2 1 1 2 3 5 5 5 5 4 3 2 1 1 1 2 3
5 6 7 9 11 10 7 4 3 3 2 1 1 1 3 4 4 4 5 7 7 6 6 6 5 4 2 1 0 1 2 3 4 4 4 3 2 1 2 2 1 1 1
4 6 7 8 11 12 10 6 3 3 2 2 2 3 3 4 4 4 7 9 9 8 6 5 4 4 3 1 0 0 1 2 3 3 4 3 2 2 2 3 3 2 2
9 8 7 8 11 12 11 7 4 2 2 2 3 4 5 6 5 6 9 11 11 9 7 5 4 4 3 2 1 0 0 1 2 3 3 3 2 2 1 2 3 4 3
13 12 9 9 10 12 11 8 4 2 1 1 2 4 5 6 7 8 11 13 12 10 8 6 4 3 3 2 1 0 0 0 2 3 2 1 1 1 1 1 2 3 4
13 12 10 9 10 12 12 9 6 3 1 0 1 3 4 4 6 9 12 13 11 9 8 7 5 3 2 1 0 0 0 0 1 2 1 0 0 0 0 0 1 2 2
12 10 9 9 10 11 12 11 8 5 3 1 1 2 4 3 4 7 10 10 8 6 6 5 3 1 1 0 0 0 0 0 1 1 1 0 0 0 0 0 0 1 1
10 9 8 8 8 9 11 12 10 6 3 1 1 2 3 2 3 5 6 6 4 3 2 2 1 0 0 0 0 0 0 0 0 0 0 0 0 0 0 0 0 0 0
8 8 7 7 7 7 8 9 9 6 4 3 3 2 1 1 2 3 3 3 2 1 0 0 0 0 0 0 0 0 0 0 0 0 0 0 0 0 0 0 0 0 0
6 6 6 6 5 4 4 5 6 6 5 5 4 2 1 1 2 2 2 2 1 1 0 0 0 0 0 0 0 0 0 0 0 0 0 0 0 0 0 0 0 0 0
4 5 5 4 3 2 1 3 5 5 4 4 3 1 0 1 1 1 1 1 1 0 0 0 0 0 0 0 0 0 0 0 0 0 0 0 0 0 0 0 0 0 0
Wind_Speed
3 4 3 3 3 2 2 1 1 1 0 1 1 1 2 1 1 1 1 1 2 2 2 2 2 2 2 3 2 2 2 2 2 2 2 3 3 3 3 3 3 4 4
3 3 2 2 2 2 1 1 1 1 1 0 1 2 2 2 2 1 1 2 3 3 3 3 3 2 2 3 2 2 2 2 1 1 2 2 2 2 4 3 3 4 3
3 3 1 1 2 2 1 1 2 1 1 0 1 2 1 1 1 1 1 2 3 3 2 2 2 2 2 2 3 3 3 3 3 2 2 1 1 1 2 5 4 4 3
3 2 1 1 2 1 1 2 2 1 1 0 1 2 2 2 2 2 1 2 2 2 2 3 3 2 2 3 3 2 2 3 3 3 3 2 1 1 1 2 3 4 4
2 2 1 2 1 1 2 2 2 1 1 0 1 2 3 2 2 2 1 2 2 2 2 2 2 2 2 2 2 2 2 2 2 3 2 3 2 3 2 2 2 3 3
2 2 2 2 2 2 2 3 2 2 1 1 1 2 3 3 3 2 2 2 1 1 2 1 1 2 2 2 2 2 2 2 2 3 2 2 2 2 2 3 3 3 3
2 2 2 3 3 2 2 2 2 1 1 0 1 1 2 3 2 2 2 2 1 1 1 1 1 1 2 2 2 2 2 3 3 3 3 3 3 2 2 3 3 3 3
2 3 3 3 2 3 3 2 1 1 0 0 1 1 2 2 1 2 2 2 1 1 1 1 1 1 2 2 2 2 3 2 3 4 3 3 3 3 3 3 2 3 3
2 3 3 3 3 3 3 2 2 1 0 0 1 1 1 2 2 2 2 2 1 1 1 1 1 1 1 2 2 2 2 2 3 3 3 3 3 2 3 2 2 3 3
3 3 3 3 3 2 2 2 1 1 0 1 1 1 1 1 1 2 2 2 2 2 1 1 1 2 2 2 2 2 2 2 2 2 3 3 2 2 2 2 2 2 3
3 3 2 3 3 2 2 2 2 1 1 1 1 2 1 1 1 1 1 1 1 1 1 1 1 1 1 2 2 3 3 3 3 3 3 3 3 3 2 2 2 2 2
4 3 3 3 3 2 2 2 2 2 1 1 1 1 1 1 1 1 1 1 1 1 1 1 1 1 1 2 2 3 3 3 3 3 3 3 3 3 2 2 3 3 3
4 4 3 3 3 2 2 2 2 2 2 1 1 1 1 1 1 1 1 1 1 1 1 1 1 1 2 2 2 3 3 3 3 3 3 3 3 3 2 3 3 3 3
4 3 3 3 2 2 2 2 2 2 2 2 1 1 1 1 1 1 1 1 1 1 1 2 2 2 2 2 2 2 3 3 3 3 3 3 3 3 3 3 3 3 2
4 3 3 2 2 1 1 1 1 1 1 1 1 1 1 1 1 1 1 1 2 2 2 2 2 2 1 2 3 3 3 2 2 2 2 2 2 2 2 3 2 2 2
4 3 3 2 2 1 1 1 1 1 2 1 1 1 1 1 1 1 1 1 2 2 2 3 3 3 3 3 3 3 3 3 2 2 2 2 1 2 3 3 4 4 4
3 3 3 2 1 1 1 1 1 1 1 1 1 1 2 2 2 2 2 2 2 2 3 3 2 2 3 4 4 4 3 3 2 2 2 3 2 1 2 3 4 5 7
3 3 3 2 2 2 2 1 1 1 2 2 2 2 1 1 1 1 2 2 2 2 2 3 2 2 2 3 4 5 2 3 2 2 2 1 2 2 3 3 3 3 3
3 2 2 3 3 3 2 2 2 2 2 3 3 3 3 3 2 2 2 2 2 2 2 2 2 2 2 2 3 4 3 2 2 2 2 1 1 2 3 2 3 3 3
3 3 2 3 2 2 2 2 2 2 3 3 3 3 3 3 2 2 2 2 2 2 3 3 2 2 1 1 3 3 3 3 3 2 1 1 2 3 3 2 3 4 4
3 2 2 2 2 2 1 1 2 2 3 3 3 2 3 2 2 2 2 2 3 3 3 3 2 1 0 0 2 3 2 4 4 3 1 1 2 3 4 4 4 5 5
2 2 2 2 2 1 1 1 2 2 2 3 3 3 2 3 3 2 2 3 3 3 3 3 2 1 1 1 2 3 4 4 4 3 2 2 2 4 5 4 5 7 6
2 1 1 1 1 1 1 1 1 2 2 2 2 3 3 2 3 2 2 3 3 3 3 3 3 2 1 0 1 3 4 5 3 3 4 5 6 6 4 4 5 4 3
1 1 0 1 1 1 1 1 1 1 2 2 3 2 3 3 2 2 3 3 3 3 3 3 3 3 2 2 2 2 2 3 3 4 4 5 5 5 4 4 3 2 2
2 1 1 1 2 1 2 1 1 1 2 3 3 3 3 3 2 2 2 2 1 2 2 3 3 4 3 3 3 3 3 3 4 4 3 3 2 2 2 2 2 2 2
1 2 2 2 2 2 2 2 1 1 2 3 4 4 3 3 2 2 2 2 1 1 1 2 1 1 2 3 4 5 6 6 5 3 3 3 3 3 3 2 2 2 2
Wind_Direction
125 107 97 79 64 64 75 90 105 116 168 230 234 248 248 250 250 230 210 220 247 246 236 265 244 244 246 245 246 253 253 250 248 272 278 265 243 229 211 214 218 218 211
145 115 107 98 84 74 90 124 123 132 177 235 272 259 249 247 242 249 216 226 237 247 235 238 244 234 248 252 246 249 261 268 244 246 280 273 262 241 230 213 210 220 213
146 134 127 93 98 87 84 88 105 102 137 229 265 278 275 273 270 253 234 241 239 240 248 241 252 249 243 241 237 237 234 248 258 225 222 246 255 271 219 223 221 214 218
130 135 137 110 80 83 91 97 97 95 117 212 278 284 288 286 277 257 245 258 248 243 235 244 244 252 257 250 247 239 244 239 256 255 235 242 252 256 279 247 230 222 224
105 127 120 102 90 89 87 91 84 71 65 27 311 299 304 295 292 283 258 263 263 258 254 245 240 244 248 247 251 258 260 251 255 259 252 251 251 241 246 268 263 245 232
76 82 85 83 65 53 65 73 73 55 40 2 331 307 311 312 314 313 300 291 285 273 272 284 301 280 270 255 252 239 243 244 252 260 263 255 247 243 240 251 258 258 253
62 77 58 56 47 40 52 54 61 49 33 353 325 314 301 299 311 321 321 312 302 301 335 340 308 292 278 268 263 256 252 245 246 250 254 256 252 253 247 246 253 262 268
85 82 69 64 56 42 38 37 54 32 14 337 313 298 289 302 340 339 328 325 329 352 1 320 321 295 278 275 266 256 253 244 245 251 247 254 255 249 243 240 240 256 258
89 82 81 67 50 43 43 28 34 38 296 260 232 266 343 356 356 339 346 357 351 355 8 315 316 303 298 289 280 267 262 256 248 253 251 248 251 252 244 245 239 239 248
87 85 81 74 64 51 50 47 44 62 66 333 296 8 24 5 6 353 6 11 6 2 339 316 314 298 292 284 271 271 264 256 255 253 257 258 258 267 259 245 239 234 243
79 89 89 92 81 68 59 51 44 45 41 4 20 36 25 13 17 19 9 8 12 355 336 312 300 289 292 300 298 281 264 255 255 258 260 264 261 262 254 251 252 246 242
70 70 76 73 67 51 39 45 31 31 15 14 47 50 28 13 5 6 16 28 17 341 340 325 298 291 308 289 282 285 282 264 255 257 261 263 263 260 261 261 264 261 248
71 63 72 74 62 50 37 38 26 18 8 10 24 40 15 355 347 356 35 34 355 338 332 316 306 305 302 293 287 286 281 269 259 254 256 254 255 256 252 255 262 266 267
77 66 61 63 58 50 32 24 17 15 7 356 10 32 352 349 345 359 15 13 358 343 342 329 311 303 303 311 298 291 283 276 267 263 259 247 239 249 255 253 253 262 268
58 57 58 51 48 34 18 22 12 352 359 8 18 22 13 30 29 7 12 21 353 333 337 334 329 319 325 343 336 303 281 280 274 272 269 260 221 233 252 271 268 267 264
44 40 53 45 30 31 20 24 8 358 15 8 4 12 20 48 43 26 31 11 347 342 341 332 332 337 349 358 343 321 310 293 281 279 278 253 228 235 244 261 260 248 247
51 47 32 25 24 46 45 38 348 332 14 1 357 11 29 40 30 10 25 4 358 346 331 323 333 7 17 353 344 339 316 300 294 297 297 294 299 298 292 266 260 258 252
54 46 24 21 55 61 47 28 350 355 12 1 348 13 28 32 20 4 1 350 343 333 321 317 327 340 353 356 349 336 300 294 295 301 299 301 330 317 314 293 276 267 268
60 58 43 45 53 53 46 27 8 9 2 353 0 10 14 14 4 353 346 335 327 315 306 306 322 343 0 5 348 335 305 292 283 272 290 275 278 304 305 298 295 294 290
66 55 52 52 55 50 48 26 2 1 355 358 9 5 6 4 343 329 326 325 312 302 303 308 314 327 10 357 332 327 310 309 294 259 223 242 253 255 269 270 281 283 287
73 60 53 57 55 39 36 17 2 1 352 356 357 354 353 336 328 333 321 305 296 292 292 303 310 327 336 314 300 300 302 309 310 309 296 272 236 252 263 266 267 272 282
75 56 48 50 50 30 14 358 356 354 358 355 348 346 338 320 327 321 308 300 292 294 291 294 287 259 228 220 273 281 283 297 311 311 320 324 279 277 275 270 275 284 293
71 45 25 37 36 354 328 318 332 344 348 344 335 334 325 317 317 308 295 290 293 298 314 324 327 323 326 181 239 259 273 283 284 304 312 305 294 287 278 261 270 280 283
31 28 349 333 320 296 281 281 307 328 331 326 318 308 300 294 305 302 305 311 321 323 331 333 332 331 341 354 344 314 295 286 284 294 298 281 278 277 277 286 273 258 272
16 353 314 298 298 285 270 273 282 288 303 305 300 297 291 289 294 296 302 303 333 330 330 336 342 346 349 337 319 314 319 318 320 305 289 294 299 297 289 282 275 259 264
0 339 329 316 302 294 279 283 284 282 296 298 294 295 289 285 281 278 296 331 279 261 271 270 288 332 317 305 321 319 311 302 308 306 297 300 300 300 304 302 296 286 278